| time (UTC) | temp F | wind direction | speed MPH | gust MPH | rain 1hr in | rain 24hr in | rain mn in | humidity % | barometer mb |
| 20260509201148 | 88 | 252 | 2.0 | 3.0 | 0.00 | 0.89 | 0.89 | 54 | 1058.4 |
| 20260509200644 | 87 | 131 | 2.0 | 3.0 | 0.00 | 0.89 | 0.89 | 55 | 1058.5 |
| 20260509200139 | 86 | 192 | 2.0 | 6.0 | 0.00 | 0.89 | 0.89 | 54 | 1058.6 |
| 20260509195636 | 87 | 242 | 1.0 | 8.0 | 0.00 | 0.89 | 0.89 | 55 | 1058.7 |
| 20260509195131 | 87 | 216 | 1.0 | 3.0 | 0.00 | 0.89 | 0.89 | 59 | 1058.8 |
| 20260509194631 | 87 | 240 | 3.0 | 6.0 | 0.00 | 0.89 | 0.89 | 57 | 1058.8 |
| 20260509194128 | 87 | 160 | 2.0 | 3.0 | 0.00 | 0.89 | 0.89 | 54 | 1058.9 |
| 20260509193624 | 86 | 200 | 1.0 | 2.0 | 0.00 | 0.89 | 0.89 | 59 | 1058.7 |
| 20260509193120 | 86 | 245 | 1.0 | 2.0 | 0.00 | 0.89 | 0.89 | 57 | 1058.9 |
| 20260509192617 | 86 | 194 | 1.0 | 2.0 | 0.00 | 0.89 | 0.89 | 57 | 1058.9 |
| 20260509192112 | 86 | 204 | 3.0 | 6.0 | 0.00 | 0.89 | 0.89 | 61 | 1058.8 |
| 20260509191606 | 86 | 222 | 5.0 | 7.0 | 0.00 | 0.89 | 0.89 | 56 | 1059.1 |
| 20260509191103 | 86 | 132 | 1.0 | 2.0 | 0.00 | 0.89 | 0.89 | 57 | 1059.0 |
| 20260509190559 | 86 | 218 | 2.0 | 6.0 | 0.00 | 0.89 | 0.89 | 58 | 1059.1 |
| 20260509190057 | 85 | 242 | 2.0 | 4.0 | 0.00 | 0.89 | 0.89 | 62 | 1059.2 |
| 20260509185555 | 85 | 338 | 0.0 | 3.0 | 0.00 | 0.89 | 0.89 | 59 | 1059.2 |
| 20260509185050 | 85 | 209 | 2.0 | 4.0 | 0.00 | 0.89 | 0.89 | 58 | 1059.1 |
| 20260509184549 | 85 | 280 | 1.0 | 3.0 | 0.00 | 0.89 | 0.89 | 60 | 1059.2 |
| 20260509184045 | 84 | 13 | 1.0 | 1.0 | 0.00 | 0.89 | 0.89 | 60 | 1059.2 |
| 20260509183540 | 84 | 141 | 2.0 | 2.0 | 0.00 | 0.89 | 0.89 | 60 | 1059.4 |
| 20260509183036 | 84 | 65 | 3.0 | 3.0 | 0.00 | 0.89 | 0.89 | 60 | 1059.4 |
| 20260509182533 | 84 | 240 | 3.0 | 6.0 | 0.00 | 0.89 | 0.89 | 62 | 1059.5 |
| 20260509182030 | 85 | 252 | 2.0 | 2.0 | 0.00 | 0.89 | 0.89 | 61 | 1059.6 |
| 20260509181528 | 84 | 305 | 1.0 | 3.0 | 0.00 | 0.89 | 0.89 | 63 | 1059.6 |
| 20260509181025 | 84 | 211 | 1.0 | 1.0 | 0.00 | 0.89 | 0.89 | 61 | 1059.5 |
| 20260509180521 | 84 | 191 | 2.0 | 4.0 | 0.00 | 0.89 | 0.89 | 63 | 1059.8 |
| 20260509180019 | 83 | 333 | 2.0 | 2.0 | 0.00 | 0.89 | 0.89 | 64 | 1059.7 |
| 20260509175520 | 83 | 330 | 2.0 | 3.0 | 0.00 | 0.89 | 0.89 | 69 | 1059.9 |
| 20260509175017 | 83 | 70 | 1.0 | 2.0 | 0.00 | 0.89 | 0.89 | 68 | 1060.2 |
| 20260509174513 | 84 | 308 | 3.0 | 4.0 | 0.00 | 0.89 | 0.89 | 66 | 1060.0 |
| 20260509174008 | 83 | 132 | 0.0 | 1.0 | 0.00 | 0.89 | 0.89 | 67 | 1060.3 |
| 20260509173503 | 83 | 85 | 1.0 | 3.0 | 0.00 | 0.89 | 0.89 | 69 | 1060.2 |
| 20260509172959 | 83 | 311 | 1.0 | 1.0 | 0.00 | 0.89 | 0.89 | 67 | 1060.3 |
| 20260509172457 | 82 | 335 | 1.0 | 2.0 | 0.00 | 0.89 | 0.89 | 71 | 1060.2 |
| 20260509171952 | 81 | 335 | 1.0 | 2.0 | 0.00 | 0.89 | 0.89 | 69 | 1060.4 |
| 20260509171448 | 82 | 185 | 0.0 | 2.0 | 0.00 | 0.89 | 0.89 | 69 | 1060.5 |
| 20260509170945 | 82 | 250 | 2.0 | 2.0 | 0.00 | 0.89 | 0.89 | 71 | 1060.3 |
| 20260509170440 | 80 | 83 | 0.0 | 1.0 | 0.00 | 0.89 | 0.89 | 73 | 1060.5 |
| 20260509165936 | 80 | 358 | 4.0 | 6.0 | 0.00 | 0.89 | 0.89 | 69 | 1060.5 |
| 20260509165430 | 80 | 312 | 0.0 | 2.0 | 0.00 | 0.89 | 0.89 | 70 | 1060.6 |
| 20260509164926 | 79 | 65 | 2.0 | 3.0 | 0.00 | 0.89 | 0.89 | 72 | 1060.6 |
| 20260509164422 | 79 | 222 | 1.0 | 4.0 | 0.00 | 0.89 | 0.89 | 71 | 1060.5 |
| 20260509163918 | 78 | 295 | 4.0 | 7.0 | 0.00 | 0.89 | 0.89 | 71 | 1060.7 |
| 20260509163416 | 78 | 274 | 2.0 | 4.0 | 0.00 | 0.89 | 0.89 | 74 | 1060.5 |
| 20260509162915 | 78 | 327 | 0.0 | 2.0 | 0.00 | 0.89 | 0.89 | 75 | 1060.6 |
| 20260509162414 | 78 | 214 | 1.0 | 3.0 | 0.00 | 0.89 | 0.89 | 75 | 1060.7 |
| 20260509161909 | 78 | 350 | 4.0 | 8.0 | 0.00 | 0.89 | 0.89 | 74 | 1060.7 |
| 20260509161406 | 78 | 256 | 4.0 | 7.0 | 0.00 | 0.89 | 0.89 | 74 | 1060.7 |
| 20260509160901 | 77 | 273 | 2.0 | 6.0 | 0.00 | 0.89 | 0.89 | 77 | 1060.6 |
| 20260509160357 | 77 | 287 | 4.0 | 6.0 | 0.00 | 0.89 | 0.89 | 73 | 1060.5 |
| 20260509155852 | 76 | 310 | 4.0 | 8.0 | 0.00 | 0.89 | 0.89 | 76 | 1060.7 |
| 20260509155349 | 76 | 7 | 4.0 | 6.0 | 0.00 | 0.89 | 0.89 | 75 | 1060.6 |
| 20260509154846 | 76 | 324 | 2.0 | 3.0 | 0.00 | 0.89 | 0.89 | 74 | 1060.7 |
| 20260509154342 | 76 | 81 | 1.0 | 6.0 | 0.00 | 0.89 | 0.89 | 76 | 1060.9 |
| 20260509153839 | 75 | 83 | 1.0 | 4.0 | 0.00 | 0.89 | 0.89 | 78 | 1060.9 |
| 20260509153336 | 75 | 312 | 3.0 | 4.0 | 0.00 | 0.89 | 0.89 | 76 | 1060.7 |
| 20260509152833 | 75 | 20 | 2.0 | 7.0 | 0.00 | 0.89 | 0.89 | 75 | 1060.7 |
| 20260509152329 | 75 | 329 | 3.0 | 6.0 | 0.00 | 0.89 | 0.89 | 78 | 1060.6 |
| 20260509151826 | 75 | 301 | 1.0 | 4.0 | 0.00 | 0.89 | 0.89 | 75 | 1060.8 |
| 20260509151322 | 74 | 268 | 1.0 | 3.0 | 0.00 | 0.89 | 0.89 | 78 | 1060.7 |
| 20260509150821 | 74 | 10 | 3.0 | 6.0 | 0.00 | 0.89 | 0.89 | 76 | 1060.7 |
| 20260509150318 | 74 | 17 | 2.0 | 6.0 | 0.00 | 0.89 | 0.89 | 77 | 1060.6 |
| 20260509145815 | 74 | 306 | 2.0 | 2.0 | 0.00 | 0.89 | 0.89 | 76 | 1060.7 |
| 20260509145309 | 74 | 333 | 1.0 | 2.0 | 0.00 | 0.89 | 0.89 | 77 | 1060.7 |
| 20260509144807 | 73 | 14 | 0.0 | 4.0 | 0.00 | 0.89 | 0.89 | 77 | 1060.8 |
| 20260509144303 | 73 | 3 | 2.0 | 4.0 | 0.00 | 0.89 | 0.89 | 75 | 1060.8 |
| 20260509143800 | 73 | 313 | 1.0 | 2.0 | 0.00 | 0.89 | 0.89 | 75 | 1060.7 |
| 20260509143257 | 72 | 257 | 2.0 | 2.0 | 0.00 | 0.89 | 0.89 | 75 | 1061.0 |
| 20260509142753 | 73 | 306 | 2.0 | 4.0 | 0.00 | 0.89 | 0.89 | 73 | 1060.8 |
| 20260509142249 | 72 | 314 | 1.0 | 1.0 | 0.00 | 0.89 | 0.89 | 75 | 1061.0 |
| 20260509141745 | 71 | 41 | 0.0 | 4.0 | 0.00 | 0.89 | 0.89 | 77 | 1061.0 |
| 20260509141242 | 71 | 28 | 1.0 | 3.0 | 0.00 | 0.89 | 0.89 | 78 | 1060.9 |
| 20260509140739 | 69 | 80 | 0.0 | 0.0 | 0.00 | 0.89 | 0.89 | 84 | 1060.9 |
| 20260509140236 | 68 | 335 | 2.0 | 2.0 | 0.00 | 0.89 | 0.89 | 85 | 1060.7 |
| 20260509135733 | 68 | 256 | 1.0 | 1.0 | 0.00 | 0.89 | 0.89 | 86 | 1060.8 |
| 20260509135231 | 68 | 5 | 1.0 | 2.0 | 0.00 | 0.89 | 0.89 | 86 | 1060.9 |
| 20260509134728 | 68 | 332 | 2.0 | 4.0 | 0.00 | 0.89 | 0.89 | 84 | 1060.9 |
| 20260509134226 | 69 | 327 | 1.0 | 3.0 | 0.00 | 0.89 | 0.89 | 84 | 1060.6 |
| 20260509133723 | 69 | 1 | 1.0 | 3.0 | 0.00 | 0.89 | 0.89 | 84 | 1060.5 |
| 20260509133219 | 68 | 303 | 2.0 | 4.0 | 0.00 | 0.89 | 0.89 | 84 | 1060.7 |
| 20260509132718 | 68 | 326 | 3.0 | 4.0 | 0.00 | 0.89 | 0.89 | 85 | 1060.4 |
| 20260509132216 | 66 | 60 | 1.0 | 3.0 | 0.00 | 0.89 | 0.89 | 88 | 1060.2 |
| 20260509131712 | 66 | 62 | 0.0 | 2.0 | 0.00 | 0.89 | 0.89 | 90 | 1060.4 |
| 20260509131209 | 65 | 20 | 0.0 | 3.0 | 0.00 | 0.89 | 0.89 | 90 | 1060.2 |
| 20260509130705 | 64 | 6 | 1.0 | 2.0 | 0.00 | 0.89 | 0.89 | 91 | 1060.0 |
| 20260509130202 | 64 | 53 | 0.0 | 1.0 | 0.00 | 0.89 | 0.89 | 93 | 1059.8 |
| 20260509125658 | 64 | 97 | 0.0 | 0.0 | 0.00 | 0.89 | 0.89 | 93 | 1059.8 |
| 20260509125155 | 63 | 76 | 1.0 | 3.0 | 0.00 | 0.89 | 0.89 | 93 | 1059.5 |
| 20260509124651 | 63 | 87 | 0.0 | 2.0 | 0.00 | 0.89 | 0.89 | 94 | 1059.6 |
| 20260509124148 | 63 | 337 | 0.0 | 2.0 | 0.00 | 0.89 | 0.89 | 94 | 1059.5 |
| 20260509123646 | 63 | 63 | 0.0 | 2.0 | 0.00 | 0.89 | 0.89 | 94 | 1059.5 |
| 20260509123143 | 62 | 30 | 1.0 | 2.0 | 0.00 | 0.89 | 0.89 | 95 | 1059.3 |
| 20260509122638 | 62 | 50 | 0.0 | 1.0 | 0.00 | 0.89 | 0.89 | 96 | 1059.2 |
| 20260509122136 | 62 | 45 | 0.0 | 2.0 | 0.00 | 0.89 | 0.89 | 97 | 1059.2 |
| 20260509121632 | 62 | 50 | 1.0 | 2.0 | 0.00 | 0.89 | 0.89 | 97 | 1059.2 |
| 20260509121130 | 62 | 27 | 1.0 | 2.0 | 0.00 | 0.89 | 0.89 | 97 | 1059.3 |
| 20260509120628 | 62 | 46 | 0.0 | 3.0 | 0.00 | 0.89 | 0.89 | 97 | 1059.1 |
| 20260509120126 | 62 | 68 | 1.0 | 2.0 | 0.00 | 0.89 | 0.89 | 97 | 1058.9 |
| 20260509115623 | 62 | 2 | 3.0 | 4.0 | 0.00 | 0.89 | 0.89 | 96 | 1059.0 |
| 20260509115121 | 62 | 24 | 1.0 | 1.0 | 0.00 | 0.89 | 0.89 | 95 | 1058.9 |
| 20260509114618 | 62 | 40 | 1.0 | 1.0 | 0.00 | 0.89 | 0.89 | 95 | 1058.9 |
| 20260509114117 | 63 | 50 | 1.0 | 2.0 | 0.00 | 0.89 | 0.89 | 94 | 1058.8 |
| 20260509113615 | 63 | 13 | 3.0 | 6.0 | 0.00 | 0.89 | 0.89 | 93 | 1058.7 |
| 20260509113112 | 63 | 300 | 1.0 | 2.0 | 0.00 | 0.89 | 0.89 | 92 | 1058.4 |
| 20260509112608 | 63 | 240 | 1.0 | 4.0 | 0.00 | 0.89 | 0.89 | 89 | 1058.5 |
| 20260509112106 | 63 | 237 | 0.0 | 1.0 | 0.00 | 0.89 | 0.89 | 87 | 1058.5 |
| 20260509111603 | 63 | 209 | 1.0 | 2.0 | 0.00 | 0.89 | 0.89 | 87 | 1058.2 |
| 20260509111059 | 63 | 237 | 1.0 | 1.0 | 0.00 | 0.89 | 0.89 | 90 | 1058.0 |
| 20260509110557 | 63 | 303 | 0.0 | 1.0 | 0.00 | 0.89 | 0.89 | 89 | 1057.5 |
| 20260509110054 | 64 | 99 | 0.0 | 1.0 | 0.00 | 0.89 | 0.89 | 86 | 1057.3 |
| 20260509105552 | 64 | 67 | 0.0 | 1.0 | 0.00 | 0.89 | 0.89 | 87 | 1057.0 |
| 20260509105049 | 64 | 85 | 0.0 | 1.0 | 0.00 | 0.89 | 0.89 | 87 | 1056.9 |
| 20260509104546 | 64 | 77 | 2.0 | 3.0 | 0.00 | 0.89 | 0.89 | 86 | 1057.1 |
| 20260509104043 | 65 | 154 | 0.0 | 3.0 | 0.00 | 0.89 | 0.89 | 87 | 1056.9 |
| 20260509103540 | 64 | 207 | 1.0 | 4.0 | 0.00 | 0.89 | 0.89 | 89 | 1056.9 |
| 20260509103039 | 64 | 146 | 5.0 | 8.0 | 0.00 | 0.89 | 0.89 | 90 | 1057.0 |
| 20260509102536 | 64 | 188 | 2.0 | 3.0 | 0.00 | 0.89 | 0.89 | 95 | 1057.2 |
| 20260509102032 | 64 | 86 | 1.0 | 4.0 | 0.00 | 0.89 | 0.89 | 96 | 1057.6 |
| 20260509101529 | 64 | 131 | 3.0 | 4.0 | 0.00 | 0.89 | 0.89 | 97 | 1057.5 |
| 20260509101026 | 64 | 159 | 2.0 | 7.0 | 0.00 | 0.89 | 0.89 | 98 | 1057.2 |
| 20260509100523 | 64 | 155 | 3.0 | 7.0 | 0.00 | 0.89 | 0.89 | 99 | 1057.2 |
| 20260509100020 | 64 | 306 | 2.0 | 4.0 | 0.00 | 0.89 | 0.89 | 99 | 1057.6 |
| 20260509095516 | 64 | 206 | 2.0 | 4.0 | 0.00 | 0.89 | 0.89 | 99 | 1058.1 |
| 20260509095014 | 63 | 112 | 2.0 | 4.0 | 0.00 | 0.89 | 0.89 | 99 | 1058.1 |
| 20260509094510 | 63 | 140 | 2.0 | 7.0 | 0.00 | 0.89 | 0.89 | 99 | 1058.1 |
| 20260509094007 | 63 | 88 | 4.0 | 7.0 | 0.00 | 0.89 | 0.89 | 99 | 1058.4 |
| 20260509093506 | 63 | 116 | 7.0 | 13.0 | 0.00 | 0.89 | 0.89 | 99 | 1058.2 |
| 20260509093003 | 63 | 200 | 5.0 | 8.0 | 0.00 | 0.89 | 0.89 | 99 | 1058.3 |
| 20260509092500 | 62 | 205 | 3.0 | 8.0 | 0.00 | 0.89 | 0.89 | 99 | 1058.5 |
| 20260509091959 | 62 | 276 | 4.0 | 6.0 | 0.00 | 0.89 | 0.89 | 99 | 1058.7 |
| 20260509091456 | 62 | 149 | 2.0 | 3.0 | 0.00 | 0.89 | 0.89 | 99 | 1059.1 |
| 20260509090953 | 62 | 171 | 1.0 | 7.0 | 0.00 | 0.89 | 0.89 | 99 | 1058.9 |
| 20260509090451 | 62 | 162 | 2.0 | 3.0 | 0.00 | 0.89 | 0.89 | 99 | 1059.4 |
| 20260509085948 | 62 | 233 | 9.0 | 10.0 | 0.00 | 0.89 | 0.89 | 99 | 1059.9 |
| 20260509085445 | 62 | 205 | 3.0 | 4.0 | 0.00 | 0.89 | 0.89 | 99 | 1059.7 |
| 20260509084941 | 62 | 251 | 2.0 | 3.0 | 0.00 | 0.89 | 0.89 | 99 | 1059.2 |
| 20260509084438 | 61 | 128 | 0.0 | 4.0 | 0.00 | 0.89 | 0.89 | 99 | 1059.2 |
| 20260509083935 | 61 | 127 | 0.0 | 1.0 | 0.00 | 0.89 | 0.89 | 99 | 1059.1 |
| 20260509083432 | 61 | 214 | 0.0 | 1.0 | 0.00 | 0.89 | 0.89 | 99 | 1059.6 |
| 20260509082929 | 61 | 210 | 2.0 | 3.0 | 0.07 | 0.89 | 0.89 | 99 | 1059.7 |
| 20260509082426 | 61 | 184 | 1.0 | 3.0 | 0.07 | 0.89 | 0.89 | 99 | 1059.6 |
| 20260509081922 | 61 | 92 | 2.0 | 8.0 | 0.12 | 0.88 | 0.88 | 99 | 1059.8 |
| 20260509081420 | 61 | 95 | 5.0 | 8.0 | 0.24 | 0.88 | 0.88 | 99 | 1059.9 |
| 20260509080917 | 61 | 93 | 7.0 | 9.0 | 0.31 | 0.86 | 0.86 | 99 | 1060.7 |
| 20260509080415 | 61 | 104 | 2.0 | 7.0 | 0.59 | 0.84 | 0.84 | 99 | 1060.9 |
| 20260509075913 | 61 | 87 | 6.0 | 8.0 | 0.85 | 0.80 | 0.80 | 99 | 1061.2 |
| 20260509075410 | 61 | 78 | 3.0 | 8.0 | 0.78 | 0.73 | 0.73 | 99 | 1061.0 |
| 20260509074907 | 61 | 58 | 5.0 | 10.0 | 1.21 | 0.65 | 0.65 | 99 | 1061.5 |
| 20260509074405 | 62 | 82 | 6.0 | 8.0 | 1.44 | 0.59 | 0.59 | 99 | 1061.5 |
| 20260509073901 | 63 | 24 | 3.0 | 7.0 | 1.25 | 0.43 | 0.43 | 99 | 1061.5 |
| 20260509073358 | 64 | 65 | 2.0 | 8.0 | 1.68 | 0.34 | 0.34 | 99 | 1061.6 |
| 20260509072854 | 65 | 98 | 4.0 | 13.0 | 1.02 | 0.17 | 0.17 | 99 | 1061.7 |
| 20260509072350 | 66 | 29 | 4.0 | 14.0 | 0.17 | 0.03 | 0.03 | 99 | 1061.8 |
| 20260509071847 | 65 | 43 | 4.0 | 7.0 | 0.00 | 0.00 | 0.00 | 99 | 1061.4 |
| 20260509071344 | 65 | 4 | 1.0 | 3.0 | 0.00 | 0.00 | 0.00 | 99 | 1061.6 |
| 20260509070842 | 64 | 20 | 1.0 | 3.0 | 0.00 | 0.00 | 0.00 | 99 | 1061.4 |
| 20260509070338 | 64 | 23 | 1.0 | 2.0 | 0.00 | 0.00 | 0.00 | 99 | 1061.5 |
| 20260509065834 | 64 | 33 | 0.0 | 1.0 | 0.00 | 0.00 | 0.00 | 99 | 1061.6 |
| 20260509065331 | 64 | 34 | 2.0 | 3.0 | 0.00 | 0.00 | 0.00 | 99 | 1061.3 |
| 20260509064826 | 64 | 72 | 1.0 | 3.0 | 0.00 | 0.00 | 0.00 | 99 | 1061.1 |
| 20260509064325 | 64 | 46 | 0.0 | 2.0 | 0.00 | 0.00 | 0.00 | 99 | 1060.6 |
| 20260509063822 | 64 | 68 | 0.0 | 1.0 | 0.00 | 0.00 | 0.00 | 99 | 1060.0 |
| 20260509063318 | 64 | 55 | 1.0 | 3.0 | 0.00 | 0.00 | 0.00 | 99 | 1059.4 |
| 20260509062815 | 63 | 66 | 1.0 | 1.0 | 0.00 | 0.00 | 0.00 | 99 | 1059.1 |
| 20260509062312 | 64 | 66 | 0.0 | 1.0 | 0.00 | 0.00 | 0.00 | 99 | 1058.9 |
| 20260509061809 | 64 | 125 | 0.0 | 0.0 | 0.00 | 0.00 | 0.00 | 99 | 1058.8 |
| 20260509061308 | 64 | 127 | 0.0 | 0.0 | 0.00 | 0.00 | 0.00 | 99 | 1058.8 |
| 20260509060804 | 64 | 137 | 0.0 | 0.0 | 0.00 | 0.00 | 0.00 | 99 | 1058.7 |
| 20260509060302 | 64 | 117 | 0.0 | 0.0 | 0.00 | 0.00 | 0.00 | 99 | 1058.8 |
| 20260509055757 | 64 | 142 | 0.0 | 2.0 | 0.00 | 0.00 | 0.00 | 99 | 1058.6 |
| 20260509055253 | 64 | 124 | 2.0 | 2.0 | 0.00 | 0.00 | 0.00 | 99 | 1058.6 |
| 20260509054749 | 64 | 92 | 1.0 | 1.0 | 0.00 | 0.00 | 0.00 | 99 | 1058.9 |
| 20260509054246 | 64 | 129 | 0.0 | 1.0 | 0.00 | 0.00 | 0.00 | 99 | 1058.9 |
| 20260509053745 | 64 | 180 | 0.0 | 1.0 | 0.00 | 0.00 | 0.00 | 99 | 1059.0 |
| 20260509053241 | 64 | 147 | 0.0 | 2.0 | 0.00 | 0.00 | 0.00 | 99 | 1059.1 |
| 20260509052739 | 64 | 131 | 0.0 | 1.0 | 0.00 | 0.00 | 0.00 | 99 | 1059.0 |
| 20260509052237 | 64 | 136 | 1.0 | 1.0 | 0.00 | 0.00 | 0.00 | 99 | 1059.0 |
| 20260509051734 | 64 | 178 | 0.0 | 1.0 | 0.00 | 0.00 | 0.00 | 99 | 1058.8 |
| 20260509051232 | 64 | 140 | 0.0 | 3.0 | 0.00 | 0.00 | 0.00 | 99 | 1058.9 |
| 20260509050728 | 64 | 196 | 0.0 | 1.0 | 0.00 | 0.00 | 0.00 | 99 | 1059.0 |
| 20260509050225 | 64 | 113 | 1.0 | 2.0 | 0.00 | 0.00 | 0.00 | 99 | 1059.0 |
| 20260509045722 | 64 | 88 | 1.0 | 4.0 | 0.00 | 0.00 | 0.00 | 99 | 1058.9 |
| 20260509045219 | 65 | 141 | 0.0 | 3.0 | 0.00 | 0.00 | 0.00 | 99 | 1059.0 |
| 20260509044716 | 64 | 101 | 1.0 | 2.0 | 0.00 | 0.00 | 0.00 | 99 | 1059.0 |
| 20260509044214 | 65 | 145 | 0.0 | 1.0 | 0.00 | 0.00 | 0.00 | 99 | 1059.1 |
| 20260509043710 | 65 | 109 | 1.0 | 2.0 | 0.00 | 0.00 | 0.00 | 99 | 1059.1 |
| 20260509043206 | 65 | 102 | 0.0 | 1.0 | 0.00 | 0.00 | 0.00 | 99 | 1059.2 |
| 20260509042703 | 65 | 89 | 1.0 | 4.0 | 0.00 | 0.00 | 0.00 | 99 | 1059.4 |
| 20260509042158 | 65 | 61 | 3.0 | 3.0 | 0.00 | 0.00 | 0.00 | 99 | 1059.3 |
| 20260509041655 | 65 | 139 | 1.0 | 2.0 | 0.00 | 0.00 | 0.00 | 99 | 1059.4 |
| 20260509041153 | 66 | 111 | 1.0 | 2.0 | 0.00 | 0.00 | 0.00 | 99 | 1059.4 |
| 20260509040651 | 66 | 71 | 1.0 | 2.0 | 0.00 | 0.00 | 0.00 | 99 | 1059.3 |
| 20260509040148 | 66 | 102 | 0.0 | 1.0 | 0.00 | 0.00 | 0.00 | 98 | 1059.1 |
| 20260509035644 | 66 | 168 | 1.0 | 3.0 | 0.00 | 0.00 | 0.00 | 98 | 1058.9 |
| 20260509035141 | 66 | 81 | 3.0 | 3.0 | 0.00 | 0.00 | 0.00 | 98 | 1058.9 |
| 20260509034639 | 66 | 101 | 1.0 | 1.0 | 0.00 | 0.00 | 0.00 | 98 | 1058.9 |
| 20260509034136 | 66 | 151 | 1.0 | 2.0 | 0.00 | 0.00 | 0.00 | 98 | 1058.8 |
| 20260509033633 | 66 | 154 | 0.0 | 1.0 | 0.00 | 0.00 | 0.00 | 98 | 1058.7 |
| 20260509033130 | 66 | 124 | 0.0 | 1.0 | 0.00 | 0.00 | 0.00 | 97 | 1058.9 |
| 20260509032627 | 66 | 136 | 0.0 | 1.0 | 0.00 | 0.00 | 0.00 | 97 | 1058.7 |
| 20260509032124 | 66 | 140 | 0.0 | 1.0 | 0.00 | 0.00 | 0.00 | 97 | 1058.7 |
| 20260509031622 | 67 | 130 | 1.0 | 2.0 | 0.00 | 0.00 | 0.00 | 97 | 1058.6 |
| 20260509031119 | 67 | 173 | 0.0 | 1.0 | 0.00 | 0.00 | 0.00 | 96 | 1058.8 |
| 20260509030617 | 67 | 77 | 1.0 | 2.0 | 0.00 | 0.00 | 0.00 | 96 | 1058.5 |
| 20260509030114 | 67 | 79 | 0.0 | 1.0 | 0.00 | 0.00 | 0.00 | 96 | 1058.5 |
| 20260509025610 | 67 | 82 | 1.0 | 1.0 | 0.00 | 0.00 | 0.00 | 95 | 1058.5 |
| 20260509025105 | 67 | 148 | 0.0 | 1.0 | 0.00 | 0.00 | 0.00 | 95 | 1058.6 |
| 20260509024601 | 67 | 144 | 0.0 | 0.0 | 0.00 | 0.00 | 0.00 | 95 | 1058.5 |
| 20260509024057 | 68 | 126 | 0.0 | 0.0 | 0.00 | 0.00 | 0.00 | 94 | 1058.6 |
| 20260509023556 | 68 | 106 | 0.0 | 0.0 | 0.00 | 0.00 | 0.00 | 94 | 1058.5 |
| 20260509023053 | 68 | 118 | 0.0 | 1.0 | 0.00 | 0.00 | 0.00 | 95 | 1058.5 |
| 20260509022549 | 68 | 121 | 0.0 | 0.0 | 0.00 | 0.00 | 0.00 | 94 | 1058.5 |
| 20260509022047 | 67 | 103 | 2.0 | 3.0 | 0.00 | 0.00 | 0.00 | 95 | 1058.3 |
| 20260509021543 | 67 | 59 | 0.0 | 1.0 | 0.00 | 0.00 | 0.00 | 94 | 1058.2 |
| 20260509021040 | 67 | 84 | 1.0 | 2.0 | 0.00 | 0.00 | 0.00 | 94 | 1058.1 |
| 20260509020539 | 67 | 61 | 1.0 | 2.0 | 0.00 | 0.00 | 0.00 | 94 | 1058.1 |
| 20260509020035 | 68 | 90 | 0.0 | 2.0 | 0.00 | 0.00 | 0.00 | 94 | 1057.9 |
| 20260509015534 | 68 | 74 | 1.0 | 2.0 | 0.00 | 0.00 | 0.00 | 94 | 1057.8 |
| 20260509015031 | 68 | 96 | 1.0 | 1.0 | 0.00 | 0.00 | 0.00 | 93 | 1058.0 |
| 20260509014528 | 68 | 94 | 0.0 | 0.0 | 0.00 | 0.00 | 0.00 | 93 | 1057.9 |
| 20260509014025 | 68 | 146 | 0.0 | 0.0 | 0.00 | 0.00 | 0.00 | 92 | 1057.7 |
| 20260509013522 | 69 | 118 | 0.0 | 1.0 | 0.00 | 0.00 | 0.00 | 92 | 1057.8 |
| 20260509013017 | 69 | 76 | 0.0 | 2.0 | 0.00 | 0.00 | 0.00 | 91 | 1057.7 |
| 20260509012514 | 69 | 148 | 0.0 | 1.0 | 0.00 | 0.00 | 0.00 | 90 | 1057.6 |
| 20260509012011 | 69 | 89 | 0.0 | 1.0 | 0.00 | 0.00 | 0.00 | 90 | 1057.3 |
| 20260509011509 | 70 | 73 | 0.0 | 1.0 | 0.00 | 0.00 | 0.00 | 89 | 1057.6 |
| 20260509011006 | 70 | 150 | 0.0 | 2.0 | 0.00 | 0.00 | 0.00 | 88 | 1057.3 |
| 20260509010504 | 71 | 127 | 0.0 | 1.0 | 0.00 | 0.00 | 0.00 | 87 | 1057.5 |
| 20260509010000 | 71 | 133 | 1.0 | 3.0 | 0.00 | 0.00 | 0.00 | 87 | 1057.3 |
| 20260509005458 | 71 | 161 | 2.0 | 3.0 | 0.00 | 0.00 | 0.00 | 86 | 1057.5 |
| 20260509004957 | 72 | 158 | 0.0 | 1.0 | 0.00 | 0.00 | 0.00 | 84 | 1057.3 |
| 20260509004454 | 73 | 147 | 0.0 | 1.0 | 0.00 | 0.00 | 0.00 | 83 | 1057.5 |
| 20260509003952 | 74 | 119 | 0.0 | 2.0 | 0.00 | 0.00 | 0.00 | 81 | 1057.5 |
| 20260509003450 | 74 | 168 | 0.0 | 1.0 | 0.00 | 0.00 | 0.00 | 81 | 1057.2 |
| 20260509002946 | 74 | 150 | 0.0 | 4.0 | 0.00 | 0.00 | 0.00 | 80 | 1057.1 |
| 20260509002444 | 74 | 187 | 0.0 | 2.0 | 0.00 | 0.00 | 0.00 | 79 | 1057.0 |
| 20260509001941 | 74 | 156 | 1.0 | 3.0 | 0.00 | 0.00 | 0.00 | 80 | 1057.1 |
| 20260509001438 | 75 | 187 | 0.0 | 2.0 | 0.00 | 0.00 | 0.00 | 79 | 1057.0 |
| 20260509000934 | 75 | 171 | 2.0 | 3.0 | 0.00 | 0.00 | 0.00 | 78 | 1057.2 |
| 20260509000433 | 75 | 129 | 0.0 | 4.0 | 0.00 | 0.00 | 0.00 | 77 | 1057.0 |
| 20260508235928 | 76 | 96 | 4.0 | 7.0 | 0.00 | 0.00 | 0.00 | 77 | 1057.1 |
| 20260508235426 | 76 | 176 | 2.0 | 3.0 | 0.00 | 0.00 | 0.00 | 76 | 1057.0 |
| 20260508234923 | 77 | 150 | 1.0 | 6.0 | 0.00 | 0.00 | 0.00 | 75 | 1056.9 |
| 20260508234420 | 77 | 159 | 2.0 | 3.0 | 0.00 | 0.00 | 0.00 | 76 | 1057.0 |
| 20260508233917 | 76 | 179 | 0.0 | 2.0 | 0.00 | 0.00 | 0.00 | 76 | 1057.0 |
| 20260508233417 | 76 | 179 | 1.0 | 4.0 | 0.00 | 0.00 | 0.00 | 76 | 1057.1 |
| 20260508232913 | 76 | 179 | 1.0 | 2.0 | 0.00 | 0.00 | 0.00 | 76 | 1057.2 |
| 20260508232410 | 76 | 205 | 2.0 | 2.0 | 0.00 | 0.00 | 0.00 | 76 | 1057.2 |
| 20260508231908 | 76 | 117 | 2.0 | 6.0 | 0.00 | 0.00 | 0.00 | 76 | 1057.1 |
| 20260508231405 | 77 | 129 | 4.0 | 6.0 | 0.00 | 0.00 | 0.00 | 74 | 1057.3 |
| 20260508230901 | 77 | 186 | 3.0 | 9.0 | 0.00 | 0.00 | 0.00 | 75 | 1057.1 |
| 20260508230358 | 76 | 173 | 1.0 | 4.0 | 0.00 | 0.00 | 0.00 | 76 | 1057.1 |
| 20260508225855 | 75 | 127 | 1.0 | 2.0 | 0.00 | 0.00 | 0.00 | 77 | 1056.9 |
| 20260508225351 | 75 | 144 | 2.0 | 4.0 | 0.00 | 0.00 | 0.00 | 77 | 1057.1 |
| 20260508224850 | 75 | 129 | 0.0 | 4.0 | 0.00 | 0.00 | 0.00 | 78 | 1057.1 |
| 20260508224347 | 74 | 76 | 1.0 | 2.0 | 0.00 | 0.00 | 0.00 | 79 | 1057.1 |
| 20260508223844 | 74 | 185 | 2.0 | 2.0 | 0.00 | 0.00 | 0.00 | 79 | 1057.2 |
| 20260508223341 | 74 | 165 | 2.0 | 3.0 | 0.00 | 0.00 | 0.00 | 79 | 1057.3 |
| 20260508222839 | 74 | 91 | 1.0 | 1.0 | 0.00 | 0.00 | 0.00 | 79 | 1057.2 |
| 20260508222336 | 74 | 97 | 2.0 | 4.0 | 0.00 | 0.00 | 0.00 | 79 | 1057.3 |
| 20260508221832 | 74 | 164 | 1.0 | 3.0 | 0.00 | 0.00 | 0.00 | 78 | 1057.3 |
| 20260508221328 | 74 | 137 | 1.0 | 2.0 | 0.00 | 0.00 | 0.00 | 78 | 1057.5 |
| 20260508220825 | 76 | 135 | 2.0 | 3.0 | 0.00 | 0.00 | 0.00 | 75 | 1057.3 |
| 20260508220321 | 77 | 115 | 1.0 | 3.0 | 0.00 | 0.00 | 0.00 | 73 | 1057.6 |
| 20260508215818 | 77 | 112 | 3.0 | 6.0 | 0.00 | 0.00 | 0.00 | 72 | 1057.7 |
| 20260508215314 | 75 | 116 | 3.0 | 3.0 | 0.00 | 0.00 | 0.00 | 76 | 1057.6 |
| 20260508214811 | 74 | 186 | 1.0 | 2.0 | 0.00 | 0.00 | 0.00 | 79 | 1057.8 |
| 20260508214308 | 74 | 100 | 2.0 | 2.0 | 0.00 | 0.00 | 0.00 | 78 | 1057.8 |
| 20260508213805 | 75 | 176 | 2.0 | 3.0 | 0.00 | 0.00 | 0.00 | 76 | 1058.0 |
| 20260508213302 | 74 | 167 | 1.0 | 3.0 | 0.00 | 0.00 | 0.00 | 77 | 1058.1 |
| 20260508212758 | 73 | 185 | 2.0 | 7.0 | 0.00 | 0.00 | 0.00 | 79 | 1058.1 |
| 20260508212254 | 74 | 185 | 0.0 | 3.0 | 0.00 | 0.00 | 0.00 | 77 | 1058.2 |
| 20260508211750 | 76 | 203 | 2.0 | 6.0 | 0.00 | 0.00 | 0.00 | 75 | 1058.1 |
| 20260508211246 | 75 | 175 | 1.0 | 4.0 | 0.00 | 0.00 | 0.00 | 78 | 1058.4 |
| 20260508210744 | 74 | 149 | 1.0 | 3.0 | 0.00 | 0.00 | 0.00 | 78 | 1058.4 |
| 20260508210241 | 74 | 194 | 3.0 | 4.0 | 0.00 | 0.00 | 0.00 | 77 | 1058.2 |
| 20260508205737 | 74 | 80 | 0.0 | 3.0 | 0.00 | 0.00 | 0.00 | 77 | 1058.3 |
| 20260508205234 | 75 | 168 | 2.0 | 4.0 | 0.00 | 0.00 | 0.00 | 77 | 1058.4 |
| 20260508204730 | 76 | 199 | 4.0 | 6.0 | 0.00 | 0.00 | 0.00 | 74 | 1058.5 |
| 20260508204222 | 76 | 119 | 2.0 | 3.0 | 0.00 | 0.00 | 0.00 | 74 | 1058.7 |
| 20260508203718 | 77 | 203 | 2.0 | 3.0 | 0.00 | 0.00 | 0.00 | 72 | 1058.7 |
| 20260508203214 | 77 | 194 | 2.0 | 3.0 | 0.00 | 0.00 | 0.00 | 72 | 1058.8 |
| 20260508202710 | 77 | 248 | 1.0 | 3.0 | 0.00 | 0.00 | 0.00 | 73 | 1058.8 |
| 20260508202207 | 77 | 102 | 1.0 | 3.0 | 0.00 | 0.00 | 0.00 | 72 | 1058.6 |
| 20260508201704 | 77 | 155 | 2.0 | 4.0 | 0.00 | 0.00 | 0.00 | 72 | 1058.7 |